User: anonymous   Login
Location: Harwich
(41.7160°N, 69.9939°W)
Time: 09:30:33
(UTC+01:00)
Language:

Transit 2A - Orbit

View from above orbital plane
View from above orbital plane
View from above satellite
View from above satellite

Ground track
Ground track

The orbit data is extracted from the following two-line orbital elements,

1 00045U 60007A   24062.32561496  .00000732  00000-0  20977-3 0  9992
2 00045  66.6938  51.6344 0247356  48.6338 313.5747 14.34552538259940
Epoch (UTC): 02 March 2024 07:48:53
Eccentricity: 0.0247356
inclination: 66.6938°
perigee height: 599 km
apogee height: 953 km
right ascension of ascending node: 51.6344°
argument of perigee: 48.6338°
revolutions per day: 14.34552538
mean anomaly at epoch: 313.5747°
orbit number at epoch: 25994

The dashed part of the orbit path shows where the satellite is in the earth's shadow,  

DLR